This demonstration page uses our WeatherBlox Daily Observations layout. Learn more.

Left ArrowRight Arrow

Hourly Observations for February 22, 2016

Temp ( °F °C ) Dew Point ( °F °C ) Humidity (%) Winds ( mph kmh ) Pressure ( in mb ) Visibility ( mi km ) Precip ( " mm )
12:15 am 00:15 Clear 28 -2 27 -3 93 93 N N/A 30.33 1027 10 16 N/A
12:35 am 00:35 Clear with Mist and Fog 30 -1.2 28 -2.1 94 94 N N/A 30.30 1026 5 8 N/A
12:55 am 00:55 Clear 27 -2.8 26 -3.6 94 94 N N/A 30.33 1027 10 16 N/A
1:15 am 01:15 Clear 28 -2.1 27 -2.7 96 96 N N/A 30.33 1027 10 16 N/A
1:35 am 01:35 Clear 29 -1.4 27 -2.8 90 90 N N/A 30.27 1025 10 16 N/A
1:55 am 01:55 Clear 27 -3 24 -4.2 92 92 N N/A 30.30 1026 10 16 N/A
2:15 am 02:15 Clear 29 -1.5 28 -2.4 94 94 N N/A 30.27 1025 10 16 N/A
2:35 am 02:35 Clear 26 -3.4 24 -4.2 94 94 N N/A 30.27 1025 7 11 N/A
2:55 am 02:55 Clear 29 -1.7 27 -2.6 94 94 N N/A 30.24 1024 10 16 N/A
3:15 am 03:15 Clear with Mist and Fog 29 -1.9 27 -2.7 94 94 N N/A 30.24 1024 3 4 N/A
3:35 am 03:35 Mostly Cloudy with Mist and Fog 27 -2.8 26 -3.5 95 95 SE 7 11 30.27 1025 1 2 N/A
3:55 am 03:55 Clear with Mist and Fog 26 -3.3 25 -3.9 96 96 SE 3 6 30.27 1025 3 5 N/A
4:15 am 04:15 Mostly Cloudy with Mist and Fog 26 -3.1 26 -3.6 96 96 SSE 3 6 30.27 1025 2 2 N/A
4:35 am 04:35 Mostly Cloudy with Mist and Fog 27 -2.9 26 -3.5 96 96 SSE 6 9 30.27 1025 1 2 N/A
4:55 am 04:55 Cloudy with Freezing Fog 27 -2.8 26 -3.3 96 96 SSE 3 6 30.27 1025 0 0 N/A
5:15 am 05:15 Cloudy with Freezing Fog 27 -2.8 26 -3.4 96 96 N N/A 30.27 1025 1 1 N/A
5:35 am 05:35 Cloudy with Freezing Fog 28 -2.1 27 -2.6 96 96 SSE 3 6 30.24 1024 0 0 N/A
5:55 am 05:55 Cloudy with Freezing Fog 29 -1.8 28 -2.4 96 96 SSE 5 7 30.24 1024 0 0 N/A
6:15 am 06:15 Cloudy with Freezing Fog 31 -0.5 30 -1 96 96 SSE 8 13 30.24 1024 0 0 N/A
6:35 am 06:35 Cloudy with Fog 32 undefined 31 -0.5 96 96 SSE 9 15 30.21 1023 0 0 N/A
6:55 am 06:55 Cloudy with Fog 32 undefined 31 -0.3 98 98 SSE 7 11 30.21 1023 0 0 N/A
7:15 am 07:15 Cloudy with Fog 32 undefined 32 -0.2 99 99 SE 7 11 30.21 1023 0 0 N/A
7:35 am 07:35 Cloudy with Fog 32 0.1 32 -0.1 99 99 SSE 8 13 30.21 1023 0 0 N/A
7:55 am 07:55 Cloudy with Fog 33 0.3 32 undefined 98 98 SSE 9 15 30.21 1023 0 0 N/A
8:15 am 08:15 Cloudy with Fog 33 0.5 32 undefined 96 96 SSE 12 19 30.18 1022 0 0 N/A
8:35 am 08:35 Cloudy with Fog 33 0.5 32 undefined 96 96 SSE 10 17 30.18 1022 5 8 N/A
8:55 am 08:55 Cloudy with Mist and Fog 34 1.1 33 0.6 97 97 S 13 20 30.18 1022 1 2 N/A
9:15 am 09:15 Cloudy with Mist and Fog 34 1.1 33 0.6 97 97 S 9 15 30.18 1022 1 2 N/A
9:35 am 09:35 Cloudy with Fog 33 0.8 33 0.3 97 97 S 9 15 30.18 1022 1 1 N/A
9:55 am 09:55 Cloudy with Mist and Fog 34 0.9 33 0.4 97 97 S 12 19 30.18 1022 1 1 N/A
10:15 am 10:15 Cloudy with Mist and Fog 34 1.2 33 0.7 97 97 SSE 13 20 30.18 1022 4 6 N/A
10:35 am 10:35 Cloudy 35 1.5 34 1 97 97 S 10 17 30.18 1022 7 11 N/A
10:55 am 10:55 Cloudy 35 1.8 34 1.3 97 97 S 12 19 30.15 1021 10 16 N/A
11:15 am 11:15 Cloudy 36 2.1 35 1.6 97 97 S 13 20 30.15 1021 10 16 N/A
11:35 am 11:35 Cloudy 37 2.7 36 2.2 97 97 S 14 22 30.15 1021 10 16 N/A
11:55 am 11:55 Cloudy 38 3.6 37 3 96 96 SSE 13 20 30.12 1020 10 16 N/A
12:15 pm 12:15 Partly Cloudy 40 4.5 36 2 84 84 SSE 14 22 30.09 1019 10 16 N/A
12:35 pm 12:35 Sunny 42 5.8 35 1.5 74 74 S 12 19 30.09 1019 10 16 N/A
12:55 pm 12:55 Sunny 43 6.2 34 1.2 71 71 S 10 17 30.03 1017 10 16 N/A
1:15 pm 13:15 Sunny 45 7 34 1.1 66 66 SSE 10 17 30.03 1017 10 16 N/A
1:35 pm 13:35 Sunny 45 7.4 33 0.5 62 62 S 12 19 30.00 1016 10 16 N/A
1:55 pm 13:55 Sunny 46 8 33 0.5 59 59 S 12 19 30.00 1016 10 16 N/A
2:15 pm 14:15 Sunny 48 8.7 32 0.1 55 55 S 9 15 29.97 1015 10 16 N/A
2:35 pm 14:35 Partly Cloudy 48 8.9 33 0.3 55 55 S 8 13 29.94 1014 10 16 N/A
2:55 pm 14:55 Partly Cloudy 49 9.5 32 0.1 52 52 S 12 19 29.94 1014 10 16 N/A
3:15 pm 15:15 Sunny 49 9.5 33 0.5 54 54 S 9 15 29.94 1014 10 16 N/A
3:35 pm 15:35 Sunny 50 10 32 undefined 50 50 S 8 13 29.94 1014 10 16 N/A
3:55 pm 15:55 Sunny 51 10.5 31 -0.7 46 46 SSE 10 17 29.91 1013 10 16 N/A
4:15 pm 16:15 Sunny 51 10.5 29 -1.6 43 43 S 8 13 29.91 1013 10 16 N/A
4:35 pm 16:35 Sunny 51 10.4 29 -1.7 43 43 S 8 13 29.91 1013 10 16 N/A
4:55 pm 16:55 Sunny 51 10.3 30 -1.2 45 45 SSE 8 13 29.91 1013 10 16 N/A
5:15 pm 17:15 Sunny 51 10.6 29 -1.8 42 42 SSE 9 15 29.91 1013 10 16 N/A
5:35 pm 17:35 Sunny 50 10.1 29 -1.6 44 44 SSE 8 13 29.91 1013 10 16 N/A
5:55 pm 17:55 Sunny 48 9.1 29 -1.5 48 48 SSE 7 11 29.91 1013 10 16 N/A
6:15 pm 18:15 Sunny 45 7.3 30 -1.3 55 55 SSE 6 9 29.94 1014 10 16 N/A
6:35 pm 18:35 Clear 42 5.6 30 -1.2 62 62 SE 8 13 29.94 1014 10 16 N/A
6:55 pm 18:55 Clear 39 3.7 30 -1.3 70 70 ESE 7 11 29.97 1015 10 16 N/A
7:15 pm 19:15 Clear 40 4.5 29 -1.5 65 65 SE 8 13 29.97 1015 10 16 N/A
7:35 pm 19:35 Clear 39 3.7 29 -1.5 69 69 SE 8 13 30.00 1016 10 16 N/A
7:55 pm 19:55 Clear 38 3.2 29 -1.4 72 72 SE 8 13 30.00 1016 10 16 N/A
8:15 pm 20:15 Clear 37 2.8 29 -1.5 74 74 SE 6 9 30.00 1016 10 16 N/A
8:35 pm 20:35 Clear 37 2.5 29 -1.6 75 75 SE 6 9 30.00 1016 10 16 N/A
8:55 pm 20:55 Clear 37 2.9 30 -1.2 75 75 SE 6 9 30.03 1017 10 16 N/A
9:15 pm 21:15 Clear 37 2.8 30 -0.9 77 77 SE 7 11 30.03 1017 10 16 N/A
9:35 pm 21:35 Partly Cloudy 37 2.6 30 -1 77 77 SE 6 9 30.03 1017 10 16 N/A
9:55 pm 21:55 Partly Cloudy 37 2.8 30 -1 76 76 SE 6 9 30.03 1017 10 16 N/A
10:15 pm 22:15 Clear 37 2.6 30 -1 77 77 SSE 6 9 30.03 1017 10 16 N/A
10:35 pm 22:35 Partly Cloudy 37 2.8 30 -1.1 76 76 SSE 5 7 30.03 1017 10 16 N/A
10:55 pm 22:55 Mostly Cloudy 37 3 30 -1.1 75 75 SSE 5 7 30.03 1017 10 16 N/A
11:15 pm 23:15 Cloudy 37 3 30 -1.2 74 74 S 6 9 30.03 1017 10 16 N/A
11:35 pm 23:35 Cloudy 37 2.5 30 -1.2 77 77 N N/A 30.03 1017 10 16 N/A
11:55 pm 23:55 Cloudy 38 3.1 31 -0.7 76 76 W 5 7 30.06 1018 10 16 N/A

Powered by AerisWeather